Other Public Products
Issued by NWS Grand Forks, ND

Home | Current Version | Previous Version | Text Only | Print | Product List | Glossary Off
Versions: 1 2 3 4 5 6 7 8 9 10 11 12 13 14 15 16 17 18 19 20 21 22 23 24 25 26 27 28 29 30 31 32 33 34 35 36 37 38 39 40 41 42 43 44 45 46 47 48 49 50

000
FPUS83 KFGF 211231
OPUFGF
PRAIRIE TO PINES WEATHER ROUNDUP
NATIONAL WEATHER SERVICE EASTERN NORTH DAKOTA/GRAND FORKS ND
700 AM CDT TUE OCT 21 2014

 **SATELLITE DATA USED TO AUGMENT SKY COVER AT AUTOMATED STATIONS**
 *****  WEATHER ACROSS EASTERN NORTH DAKOTA  *****

CITY           SKY/WX    TMP DP  RH WIND       PRES   REMARKS
GRAND FORKS    CLEAR     38  36  92 SE9       30.03F
6HR MIN TEMP:  38; 6HR MAX TEMP:  43;

GRAND FORKS AF CLEAR     37  37  99 S8        30.02F
GRAND CITY NWS   N/A     37 N/A N/A S12         N/A
BUXTON           N/A     38  38  99 SE10        N/A
DEVILS LAKE    CLEAR     46  36  66 SE16G22   29.92S
6HR MIN TEMP:  46; 6HR MAX TEMP:  48;

FARGO          CLEAR     44  37  76 SE14      30.04F
6HR MIN TEMP:  43; 6HR MAX TEMP:  46;

WAHPETON ARPT  SUNNY     39  34  81 SE13      30.06F
$$

 *****  WEATHER ACROSS CENTRAL AND WESTERN NORTH DAKOTA  *****

CITY           SKY/WX    TMP DP  RH WIND       PRES   REMARKS
JAMESTOWN      CLEAR     46  38  73 SE15      29.95F
6HR MIN TEMP:  43; 6HR MAX TEMP:  47;

BISMARCK       CLEAR     50  36  58 SE7       29.85F
6HR MIN TEMP:  50; 6HR MAX TEMP:  55;

MINOT          CLEAR     48  35  60 E7        29.82F
6HR MIN TEMP:  43; 6HR MAX TEMP:  52;

MINOT AFB      CLEAR     37  36  95 SE6       29.82F
6HR MIN TEMP:  37; 6HR MAX TEMP:  45;

GARRISON         N/A     44  36  73 E8        29.82F
6HR MIN TEMP:  44; 6HR MAX TEMP:  51;

WILLISTON      CLEAR     44  38  79 CALM      29.76S
6HR MIN TEMP:  37; 6HR MAX TEMP:  57;

DICKINSON      CLEAR     38  34  85 E7        29.77F
6HR MIN TEMP:  38; 6HR MAX TEMP:  50;

HETTINGER      CLEAR     40  36  86 E5        29.80F
6HR MIN TEMP:  38; 6HR MAX TEMP:  49;

$$

 *****  OTHER OBSERVATIONS NORTHEAST NORTH DAKOTA  *****

CITY           SKY/WX    TMP DP  RH WIND       PRES   REMARKS
WALHALLA       FAIR      37  37 100 S12       29.99F
LANGDON        FAIR      39  36  87 SE14      29.95F
CAVALIER       FAIR      37  36  93 S10       30.01F
GRAFTON        FAIR      34  34 100 SE8       30.02F
CANDO          FAIR      43  39  87 SE12      29.93S
FORT TOTTEN      N/A     46  38  73 S14       29.95
ROLLA          FAIR      41  39  93 S8        29.92F
RUGBY          FAIR      46  39  76 SE14G21   29.88S
 ***** THE ABOVE OBSERVATIONS ARE NON NWS ARE NOT QUALITY
        CONTROLLED AND MAY MIS-REPORT RAIN FOR SNOW...
$$

 *****  OTHER OBSERVATIONS SOUTHEAST NORTH DAKOTA *****

CITY           SKY/WX    TMP DP  RH WIND       PRES   REMARKS
COOPERSTOWN    NOT AVBL
VALLEY CITY    FAIR      39  39 100 SE12      29.98F
OAKES          MIX PCPN  41  39  93 E10       29.97F
GWINNER        SUNNY     43  37  81 SE12      30.01F
SHEYENNE NWR     N/A     39  36  90 SE8       29.95
BUFFALO          N/A     38  36  91 SE9         N/A
WYNDMERE         N/A     39  37  93 SE7         N/A
 ***** THE ABOVE OBSERVATIONS ARE NON NWS ARE NOT QUALITY
       CONTROLLED AND MAY MIS-REPORT RAIN FOR SNOW...
$$

  *****  WEATHER ACROSS NORTHERN MINNESOTA  *****

CITY           SKY/WX    TMP DP  RH WIND       PRES   REMARKS
FLAG ISLAND    CLEAR     43  37  81 SE17G24   30.11S
WARROAD        CLEAR     37  34  87 SE10      30.11S
ROSEAU         CLEAR     37  34  87 SE7       30.09S
HALLOCK        CLEAR     37  36  93 SE10      30.04S
THF RVR FALLS  CLEAR     36  34  93 SE8       30.07S
6HR MIN TEMP:  36; 6HR MAX TEMP:  37;

HALSTAD          N/A     37  36  95 SE9         N/A
FOSSTON        FAIR      37  34  87 SE7       30.08S
BAUDETTE       CLEAR     35  32  88 SE6       30.14S
6HR MIN TEMP:  34; 6HR MAX TEMP:  36;

WASKISH        FAIR      32  32 100 CALM      30.14S
CROOKSTON      CLEAR     39  37  93 S13       30.06S
$$
  *****  WEATHER ACROSS CENTRAL AND WEST MINNESOTA  *****

CITY           SKY/WX    TMP DP  RH WIND       PRES   REMARKS
BEMIDJI        CLEAR     33  32  98 SE7       30.12F
PARK RAPIDS    CLEAR     35  34  96 SE7       30.12S
6HR MIN TEMP:  33; 6HR MAX TEMP:  38;

WADENA         CLEAR     34  32  93 SE5       30.12S
DETROIT LAKES  CLEAR     39  37  93 SE13      30.09F
MOORHEAD       CLEAR     43  43 100 SE10      30.05F
FERGUS FALLS   CLEAR     43  36  75 SE15      30.09F
ELBOW LAKE     FAIR      42  38  86 SE13G20   30.08F
6HR MIN TEMP:  40; 6HR MAX TEMP:  45;

MORRIS MN      CLEAR     39  37  93 SE12      30.08F
STAPLES        CLEAR     34  34 100 E3        30.14S
WHEATON        CLEAR     37  34  87 SE10      30.09S
$$
  *****  WEATHER ELSEWHERE ACROSS MINNESOTA  *****

CITY           SKY/WX    TMP DP  RH WIND       PRES   REMARKS
DULUTH         CLOUDY    42  35  76 E10       30.19R
6HR MIN TEMP:  42; 6HR MAX TEMP:  45;

INTRNTL FALLS  PTCLDY    35  31  85 SE6       30.17S
6HR MIN TEMP:  40; 6HR MAX TEMP:  42;

ELY            CLOUDY    37  34  87 S6        30.21S
CLOQUET        CLOUDY    43  37  81 E5        30.20R
BRAINERD       CLEAR     30  30 100 CALM      30.16S FOG
6HR MIN TEMP:  29; 6HR MAX TEMP:  35;

HIBBING        CLOUDY    41  34  76 SE7       30.19R
6HR MIN TEMP:  37; 6HR MAX TEMP:  44;

ALEXANDRIA     CLEAR     38  36  92 SE8       30.13S
6HR MIN TEMP:  38; 6HR MAX TEMP:  43;

SAINT CLOUD    CLEAR     38  34  85 E3        30.16R
6HR MIN TEMP:  36; 6HR MAX TEMP:  41;

MINNEAPOLIS    CLEAR     40  37  89 NE3       30.17R
6HR MIN TEMP:  38; 6HR MAX TEMP:  43;

$$

  *****  WEATHER ACROSS SOUTH DAKOTA  *****

CITY           SKY/WX    TMP DP  RH WIND       PRES   REMARKS
SIOUX FALLS    CLEAR     41  36  82 SE3       30.09S
6HR MIN TEMP:  37; 6HR MAX TEMP:  44;

BROOKINGS      NOT AVBL
WATERTOWN      CLEAR     46  38  73 SE12      30.04F
6HR MIN TEMP:  39; 6HR MAX TEMP:  47;

HURON          CLEAR     50  36  58 SE14      29.98F
6HR MIN TEMP:  45; 6HR MAX TEMP:  50;

SISSETON         N/A     37  36  96 S9        30.05S
ABERDEEN       CLEAR     49  38  65 SE12      29.96F
6HR MIN TEMP:  42; 6HR MAX TEMP:  49;

MITCHELL       CLEAR     49  38  65 SE13      30.01F
PIERRE         CLEAR     52  40  63 SE13      29.87S
6HR MIN TEMP:  51; 6HR MAX TEMP:  57;

MOBRIDGE       CLEAR     53  40  61 SE10      29.83F
RAPID CITY     CLEAR     49  38  65 SE3       29.84S
6HR MIN TEMP:  48; 6HR MAX TEMP:  54;

$$

  *****  SOME WEATHER IN NEARBY STATES *****

CITY           SKY/WX    TMP DP  RH WIND       PRES   REMARKS
GLASGOW MT     CLEAR     46  37  71 E15       29.68S
6HR MIN TEMP:  45; 6HR MAX TEMP:  51;

GREAT FALLS MT MOCLDY    52  35  52 S8        29.67S
6HR MIN TEMP:  51; 6HR MAX TEMP:  63;

CHEYENNE WY    CLEAR     47  34  60 W12       30.05S
6HR MIN TEMP:  40; 6HR MAX TEMP:  49;

SCOTTSBLUFF NE CLEAR     46  41  82 E8        29.96S
6HR MIN TEMP:  44; 6HR MAX TEMP:  63;

OMAHA NE       CLEAR     40  38  93 CALM      30.12R
6HR MIN TEMP:  39; 6HR MAX TEMP:  46;

DES MOINES IA  CLEAR     43  39  86 CALM      30.12S
6HR MIN TEMP:  43; 6HR MAX TEMP:  50;

DAVENPORT IA   CLEAR     39  36  89 N3        30.14R
6HR MIN TEMP:  36; 6HR MAX TEMP:  45;

CHICAGO IL     PTCLDY    46  39  76 N12       30.09R
6HR MIN TEMP:  45; 6HR MAX TEMP:  51;

EAU CLAIRE WI  CLEAR     36  34  92 NE6       30.19R
6HR MIN TEMP:  32; 6HR MAX TEMP:  39;

LA CROSSE WI   CLEAR     38  35  89 CALM      30.18R
6HR MIN TEMP:  37; 6HR MAX TEMP:  43;

$$

  *****  SOME NATIONAL WEATHER *****

CITY           SKY/WX    TMP DP  RH WIND       PRES   REMARKS



USA.gov is the U.S. government's official web portal to all federal, state and local government web resources and services.